, AK

(GMT )
Northway

Weather History for PAOR - November, 2011

Change the Weather History Date:

Tuesday, November 22, 2011

  Actual Average Record
Temperature  
Mean Temperature -21 °F -  
Max Temperature -13 °F 3 °F 35 °F (1956)
Min Temperature -29 °F -10 °F -48 °F (1986)
Degree Days  
Heating Degree Days 86    
Moisture  
Dew Point -26 °F    
Average Humidity 73    
Maximum Humidity 78    
Minimum Humidity 70    
Precipitation  
Precipitation 0.00 in - - ()
Snow  
Snow 0.00 in - - ()
Snow Depth 7.00 in    
Sea Level Pressure  
Sea Level Pressure 29.35 in    
Wind  
Wind Speed 0 mph (North)    
Max Wind Speed 0 mph    
Max Gust Speed -    
Visibility 8 miles    
Events Snow    
Averages and records for this station are not official NWS values.
T = Trace of Precipitation, MM = Missing Value Source: NWS Daily Summary

Daily Weather History Graph

Daily Weather History Graph

Search for Another Location

Airport or City:

Trip Planner

Search our weather history database for the weather conditions in past years. The results will help you decide how hot, cold, wet, or windy it might be!

Date:

Astronomy

Nov. 22, 2011 Rise Set
Actual Time 9:06 AM AKST 3:20 PM AKST
Civil Twilight 8:07 AM AKST 4:19 PM AKST
Nautical Twilight 7:07 AM AKST 5:19 PM AKST
Astronomical Twilight 6:12 AM AKST 6:14 PM AKST
Moon 5:26 AM AKST (11/22) 1:58 PM AKST (11/22)
Length of Visible Light 8h 12m
Length of Day
6h 13m
Waning Crescent, 8% of the Moon is Illuminated
Nov 22
Waning Crescent
Nov 24
New
Dec 2
First Quarter
Dec 10
Full
Dec 17
Last Quarter

Hourly Weather History & Observations

Time (AKST) Temp. Dew Point Humidity Pressure Visibility Wind Dir Wind Speed Gust Speed Precip Events Conditions
12:53 AM -29.9 °F - N/A% 29.45 in 10.0 mi Calm Calm - N/A   Scattered Clouds
1:53 AM -29.0 °F -35.0 °F 73% 29.44 in 10.0 mi Calm Calm - N/A   Scattered Clouds
3:53 AM -27.0 °F -33.0 °F 73% 29.42 in 10.0 mi Calm Calm - N/A   Mostly Cloudy
4:53 AM -27.0 °F -33.0 °F 73% 29.41 in 10.0 mi Calm Calm - N/A   Overcast
5:53 AM -26.0 °F -32.1 °F 73% 29.41 in 10.0 mi Calm Calm - N/A   Overcast
6:53 AM -25.1 °F -31.0 °F 74% 29.39 in 10.0 mi Calm Calm - N/A   Overcast
7:53 AM -25.1 °F -29.9 °F 78% 29.40 in 9.0 mi Calm Calm - 0.00 in Snow Light Snow
8:53 AM -24.0 °F -29.9 °F 74% 29.39 in 9.0 mi Calm Calm - 0.00 in Snow Light Snow
9:53 AM -22.0 °F -29.0 °F 70% 29.38 in 9.0 mi Calm Calm - 0.00 in Snow Light Snow
10:53 AM -22.0 °F -27.9 °F 74% 29.38 in 9.0 mi Calm Calm - 0.00 in Snow Light Snow
11:53 AM -20.9 °F -27.0 °F 73% 29.37 in 6.0 mi Calm Calm - 0.00 in Snow Light Snow
12:53 PM -20.0 °F -26.0 °F 74% 29.37 in 7.0 mi Calm Calm - 0.00 in Snow Light Snow
1:53 PM -18.9 °F -25.1 °F 74% 29.37 in 6.0 mi Calm Calm - 0.00 in Snow Light Snow
2:53 PM -18.0 °F -24.0 °F 74% 29.36 in 6.0 mi Calm Calm - 0.00 in Snow Light Snow
3:53 PM -18.0 °F -24.0 °F 74% 29.36 in 7.0 mi Calm Calm - 0.00 in Snow Light Snow
4:53 PM -17.0 °F -23.1 °F 74% 29.35 in 8.0 mi Calm Calm - 0.00 in Snow Light Snow
5:53 PM -16.1 °F -23.1 °F 71% 29.35 in 7.0 mi Calm Calm - 0.00 in Snow Light Snow
6:53 PM -16.1 °F -22.0 °F 74% 29.35 in 8.0 mi Calm Calm - 0.00 in Snow Light Snow
7:53 PM -15.0 °F -20.9 °F 75% 29.34 in 9.0 mi Calm Calm - 0.00 in Snow Light Snow
8:53 PM -14.8 °F -20.2 °F 77% 29.08 in 9.0 mi Calm Calm - N/A Snow Light Snow
9:53 PM -14.1 °F -20.9 °F 71% 29.34 in 8.0 mi Calm Calm - 0.00 in Snow Light Snow
10:53 PM -14.1 °F -20.0 °F 75% 29.34 in 7.0 mi Calm Calm - 0.00 in Snow Light Snow
11:51 PM -13.0 °F -20.2 °F 70% 29.10 in 2.5 mi Calm Calm - 0.00 in Snow Light Snow
11:52 PM -13.0 °F -20.0 °F 71% 29.34 in 2.5 mi Calm Calm - 0.00 in Snow Light Snow